timestamp,wind_dir_avg,wind_spd_avg,wind_spd_max_dir,wind_spd_gust,battery_voltage,lat,long
2023-12-04 00:04:00+00:00,10.0,3.64,7.0,4.81,12.41,47.59359,-54.27349
2023-12-04 00:14:00+00:00,6.0,4.15,1.0,4.83,12.41,47.59359,-54.27349
2023-12-04 00:24:00+00:00,12.0,3.18,45.0,4.17,12.41,47.59359,-54.27349
2023-12-04 00:34:00+00:00,4.0,4.19,10.0,4.84,12.41,47.59359,-54.27349
2023-12-04 00:44:00+00:00,29.0,5.42,31.0,6.34,12.41,47.59359,-54.27349
2023-12-04 00:54:00+00:00,36.0,3.81,49.0,5.05,12.41,47.59359,-54.27349
2023-12-04 01:04:00+00:00,37.0,4.04,40.0,4.93,12.41,47.59359,-54.27349
2023-12-04 01:14:00+00:00,1.0,2.63,1.0,3.37,12.41,47.59359,-54.27349
2023-12-04 01:24:00+00:00,18.0,3.24,34.0,4.19,12.41,47.59359,-54.27349
2023-12-04 01:34:00+00:00,52.0,3.44,48.0,3.98,12.41,47.59359,-54.27349
2023-12-04 01:44:00+00:00,42.0,3.72,47.0,4.69,12.41,47.59359,-54.27349
2023-12-04 01:54:00+00:00,40.0,5.45,36.0,6.37,12.41,47.59359,-54.27349
2023-12-04 02:04:00+00:00,44.0,6.1,53.0,7.92,12.41,47.59359,-54.27349
2023-12-04 02:14:00+00:00,37.0,6.43,36.0,7.74,12.33,47.59359,-54.27349
2023-12-04 02:24:00+00:00,41.0,4.96,38.0,5.57,12.33,47.59359,-54.27349
2023-12-04 02:34:00+00:00,54.0,3.85,50.0,4.49,12.33,47.59359,-54.27349
2023-12-04 02:44:00+00:00,47.0,3.46,56.0,4.38,12.33,47.59359,-54.27349
2023-12-04 02:54:00+00:00,64.0,3.06,66.0,4.22,12.33,47.59359,-54.27349
2023-12-04 03:04:00+00:00,45.0,2.19,53.0,3.41,12.33,47.59359,-54.27349
2023-12-04 03:14:00+00:00,82.0,2.77,87.0,3.41,12.33,47.59359,-54.27349
2023-12-04 03:24:00+00:00,73.0,1.1,80.0,2.66,12.33,47.59359,-54.27349
2023-12-04 03:34:00+00:00,93.0,2.78,86.0,3.6,12.33,47.59359,-54.27349
2023-12-04 03:44:00+00:00,70.0,0.9,66.0,1.91,12.33,47.59359,-54.27349
2023-12-04 03:54:00+00:00,97.0,3.1,100.0,4.6,12.33,47.59359,-54.27349
2023-12-04 04:04:00+00:00,103.0,2.29,116.0,3.29,12.33,47.59359,-54.27349
2023-12-04 04:14:00+00:00,71.0,1.57,74.0,2.69,12.25,47.59359,-54.27349
2023-12-04 04:24:00+00:00,83.0,1.93,85.0,3.07,12.25,47.59359,-54.27349
2023-12-04 04:34:00+00:00,69.0,1.41,72.0,2.74,12.25,47.59359,-54.27349
2023-12-04 04:44:00+00:00,122.0,0.97,114.0,2.8,12.25,47.59359,-54.27349
2023-12-04 04:54:00+00:00,127.0,0.6,104.0,1.68,12.25,47.59359,-54.27349
2023-12-04 05:04:00+00:00,142.0,0.93,110.0,2.31,12.25,47.59359,-54.27349
2023-12-04 05:14:00+00:00,113.0,1.0,110.0,1.74,12.25,47.59359,-54.27349
2023-12-04 05:24:00+00:00,99.0,1.12,93.0,1.43,12.25,47.59359,-54.27349
2023-12-04 05:34:00+00:00,86.0,1.13,83.0,2.7,12.25,47.59359,-54.27349
2023-12-04 05:44:00+00:00,107.0,0.99,98.0,2.86,12.25,47.59359,-54.27349
2023-12-04 05:54:00+00:00,78.0,3.18,75.0,3.91,12.25,47.59359,-54.27349
2023-12-04 06:04:00+00:00,80.0,3.88,83.0,4.55,12.25,47.59359,-54.27349
2023-12-04 06:14:00+00:00,62.0,5.29,67.0,7.0,12.25,47.59359,-54.27349
2023-12-04 06:24:00+00:00,66.0,5.71,75.0,10.08,12.25,47.59359,-54.27349
2023-12-04 06:34:00+00:00,62.0,5.72,77.0,8.84,12.25,47.59359,-54.27349
2023-12-04 06:44:00+00:00,60.0,5.38,67.0,7.48,12.25,47.59359,-54.27349
2023-12-04 06:54:00+00:00,69.0,5.28,70.0,7.09,12.25,47.59359,-54.27349
2023-12-04 07:04:00+00:00,66.0,4.68,60.0,5.56,12.25,47.59359,-54.27349
2023-12-04 07:14:00+00:00,67.0,4.56,58.0,6.13,12.25,47.59359,-54.27349
2023-12-04 07:24:00+00:00,87.0,3.95,82.0,4.83,12.25,47.59359,-54.27349
2023-12-04 07:34:00+00:00,92.0,3.46,89.0,4.55,12.25,47.59359,-54.27349
2023-12-04 07:44:00+00:00,66.0,4.05,63.0,4.83,12.25,47.59359,-54.27349
2023-12-04 07:54:00+00:00,66.0,4.84,64.0,5.72,12.25,47.59359,-54.27349
2023-12-04 08:04:00+00:00,59.0,3.41,54.0,4.61,12.25,47.59359,-54.27349
2023-12-04 08:14:00+00:00,75.0,3.27,90.0,3.87,12.17,47.59359,-54.27349
2023-12-04 08:24:00+00:00,63.0,4.04,56.0,4.76,12.17,47.59359,-54.27349
2023-12-04 08:34:00+00:00,66.0,3.29,72.0,4.35,12.17,47.59359,-54.27349
2023-12-04 08:44:00+00:00,68.0,4.25,70.0,4.84,12.17,47.59359,-54.27349
2023-12-04 08:54:00+00:00,54.0,5.31,53.0,6.29,12.17,47.59359,-54.27349
2023-12-04 09:04:00+00:00,44.0,4.99,39.0,5.35,12.17,47.59359,-54.27349
2023-12-04 09:14:00+00:00,86.0,3.27,75.0,4.35,12.17,47.59359,-54.27349
2023-12-04 09:24:00+00:00,79.0,3.3,55.0,4.72,12.17,47.59359,-54.27349
2023-12-04 09:34:00+00:00,71.0,3.61,58.0,4.51,12.17,47.59359,-54.27349
2023-12-04 09:44:00+00:00,84.0,2.68,105.0,4.26,12.17,47.59359,-54.27349
2023-12-04 09:54:00+00:00,69.0,3.8,57.0,4.58,12.17,47.59359,-54.27349
2023-12-04 10:04:00+00:00,71.0,4.3,68.0,5.08,12.17,47.59359,-54.27349
2023-12-04 10:14:00+00:00,79.0,3.04,79.0,3.75,12.17,47.59359,-54.27349
2023-12-04 10:24:00+00:00,74.0,3.49,86.0,4.51,12.17,47.59359,-54.27349
2023-12-04 10:34:00+00:00,70.0,4.37,60.0,5.58,12.17,47.59359,-54.27349
2023-12-04 10:44:00+00:00,81.0,4.01,98.0,6.44,12.17,47.59359,-54.27349
2023-12-04 10:54:00+00:00,76.0,4.43,76.0,5.73,12.17,47.59359,-54.27349
2023-12-04 11:04:00+00:00,73.0,4.62,68.0,6.06,12.17,47.59359,-54.27349
2023-12-04 11:14:00+00:00,79.0,4.25,94.0,5.95,12.17,47.59359,-54.27349
2023-12-04 11:24:00+00:00,77.0,4.7,68.0,6.84,12.17,47.59359,-54.27349
2023-12-04 11:34:00+00:00,68.0,4.96,67.0,6.22,12.17,47.59359,-54.27349
2023-12-04 11:44:00+00:00,72.0,4.5,79.0,5.78,12.17,47.59359,-54.27349
2023-12-04 11:54:00+00:00,86.0,3.09,63.0,5.11,12.17,47.59359,-54.27349
2023-12-04 12:04:00+00:00,69.0,3.83,55.0,5.16,12.17,47.59359,-54.27349
2023-12-04 12:14:00+00:00,70.0,5.71,70.0,7.97,12.17,47.59359,-54.27349
2023-12-04 12:24:00+00:00,73.0,5.92,77.0,9.73,12.17,47.59359,-54.27349
2023-12-04 12:34:00+00:00,72.0,7.39,72.0,9.36,12.17,47.59359,-54.27349
2023-12-04 12:44:00+00:00,75.0,7.1,73.0,9.17,12.17,47.59359,-54.27349
2023-12-04 12:54:00+00:00,78.0,5.46,71.0,9.57,12.17,47.59359,-54.27349
2023-12-04 13:04:00+00:00,74.0,7.23,86.0,9.84,12.17,47.59359,-54.27349
2023-12-04 13:14:00+00:00,73.0,5.1,81.0,9.3,12.25,47.59359,-54.27349
2023-12-04 13:24:00+00:00,75.0,7.31,78.0,10.09,12.25,47.59359,-54.27349
2023-12-04 13:34:00+00:00,73.0,6.07,71.0,10.21,12.25,47.59359,-54.27349
2023-12-04 13:44:00+00:00,85.0,7.0,91.0,9.84,12.25,47.59359,-54.27349
2023-12-04 13:54:00+00:00,77.0,5.78,76.0,9.93,12.25,47.59359,-54.27349
2023-12-04 14:04:00+00:00,77.0,4.63,80.0,9.42,12.25,47.59359,-54.27349
2023-12-04 14:14:00+00:00,80.0,5.76,79.0,10.05,12.41,47.59359,-54.27349
2023-12-04 14:24:00+00:00,80.0,3.81,76.0,5.39,12.41,47.59359,-54.27349
2023-12-04 14:34:00+00:00,95.0,5.33,108.0,10.23,12.41,47.59359,-54.27349
2023-12-04 14:44:00+00:00,88.0,4.69,89.0,9.88,12.41,47.59359,-54.27349
2023-12-04 14:54:00+00:00,85.0,3.78,79.0,5.51,12.41,47.59359,-54.27349
2023-12-04 15:04:00+00:00,78.0,3.9,82.0,8.56,12.41,47.59359,-54.27349
2023-12-04 15:14:00+00:00,72.0,7.19,79.0,9.24,12.33,47.59359,-54.27349
2023-12-04 15:24:00+00:00,71.0,5.79,74.0,10.53,12.33,47.59359,-54.27349
2023-12-04 15:34:00+00:00,80.0,7.58,86.0,10.04,12.33,47.59359,-54.27349
2023-12-04 15:44:00+00:00,74.0,7.8,73.0,10.08,12.33,47.59359,-54.27349
2023-12-04 15:54:00+00:00,77.0,6.58,79.0,9.62,12.33,47.59359,-54.27349
2023-12-04 16:04:00+00:00,74.0,6.42,84.0,8.98,12.33,47.59359,-54.27349
2023-12-04 16:14:00+00:00,69.0,5.94,70.0,7.3,12.33,47.59359,-54.27349
2023-12-04 16:24:00+00:00,85.0,4.13,90.0,5.62,12.33,47.59359,-54.27349
2023-12-04 16:34:00+00:00,62.0,5.94,71.0,7.84,12.33,47.59359,-54.27349
2023-12-04 16:44:00+00:00,71.0,7.83,70.0,9.95,12.33,47.59359,-54.27349
2023-12-04 16:54:00+00:00,315.0,0.01,57.0,0.0,12.33,47.59359,-54.27349
2023-12-04 17:04:00+00:00,38.0,9.81,45.0,11.32,12.33,47.59359,-54.27349
2023-12-04 17:14:00+00:00,32.0,8.92,25.0,11.08,12.25,47.59359,-54.27349
2023-12-04 17:24:00+00:00,32.0,7.87,32.0,8.4,12.25,47.59359,-54.27349
2023-12-04 17:34:00+00:00,30.0,8.64,28.0,9.64,12.25,47.59359,-54.27349
2023-12-04 17:44:00+00:00,27.0,9.91,23.0,11.22,12.25,47.59359,-54.27349
2023-12-04 17:54:00+00:00,27.0,8.61,26.0,9.73,12.25,47.59359,-54.27349
2023-12-04 18:04:00+00:00,29.0,10.04,34.0,11.61,12.25,47.59359,-54.27349
2023-12-04 18:14:01+00:00,31.0,9.04,31.0,10.94,12.17,47.59359,-54.27349
2023-12-04 18:24:01+00:00,31.0,9.29,30.0,11.42,12.17,47.59359,-54.27349
2023-12-04 18:34:01+00:00,37.0,8.31,34.0,9.41,12.17,47.59359,-54.27349
2023-12-04 18:44:01+00:00,39.0,8.71,40.0,10.21,12.17,47.59359,-54.27349
2023-12-04 18:54:01+00:00,40.0,9.74,43.0,10.88,12.17,47.59359,-54.27349
2023-12-04 19:04:01+00:00,41.0,9.25,39.0,10.93,12.17,47.59359,-54.27349
2023-12-04 19:14:00+00:00,33.0,10.15,33.0,11.19,12.09,47.59359,-54.27349
2023-12-04 19:24:00+00:00,39.0,10.82,40.0,11.9,12.09,47.59359,-54.27349
2023-12-04 19:34:00+00:00,35.0,9.63,37.0,11.45,12.09,47.59359,-54.27349
2023-12-04 19:44:00+00:00,36.0,10.5,42.0,11.62,12.09,47.59359,-54.27349
2023-12-04 19:54:00+00:00,31.0,9.98,37.0,11.18,12.09,47.59359,-54.27349
2023-12-04 20:04:00+00:00,25.0,10.21,24.0,11.29,12.09,47.59359,-54.27349
2023-12-04 20:14:00+00:00,27.0,9.65,28.0,10.88,12.09,47.59359,-54.27349
2023-12-04 20:24:00+00:00,27.0,10.29,29.0,11.18,12.09,47.59359,-54.27349
2023-12-04 20:34:00+00:00,27.0,11.03,27.0,12.66,12.09,47.59359,-54.27349
2023-12-04 20:44:00+00:00,31.0,11.49,34.0,13.02,12.09,47.59359,-54.27349
2023-12-04 20:54:00+00:00,40.0,10.12,46.0,11.98,12.09,47.59359,-54.27349
2023-12-04 21:04:00+00:00,51.0,9.47,49.0,10.36,12.09,47.59359,-54.27349
2023-12-04 21:14:00+00:00,38.0,9.48,38.0,10.74,12.09,47.59359,-54.27349
2023-12-04 21:24:00+00:00,37.0,10.56,40.0,11.3,12.09,47.59359,-54.27349
2023-12-04 21:34:00+00:00,44.0,10.57,44.0,12.01,12.09,47.59359,-54.27349
2023-12-04 21:44:00+00:00,40.0,9.88,47.0,11.25,12.09,47.59359,-54.27349
2023-12-04 21:54:00+00:00,31.0,11.06,35.0,12.82,12.09,47.59359,-54.27349
2023-12-04 22:04:00+00:00,36.0,10.27,32.0,11.24,12.09,47.59359,-54.27349
2023-12-04 22:14:00+00:00,29.0,11.73,31.0,12.65,12.09,47.59359,-54.27349
2023-12-04 22:24:00+00:00,31.0,9.75,37.0,10.99,12.09,47.59359,-54.27349
2023-12-04 22:34:00+00:00,26.0,9.96,35.0,12.24,12.09,47.59359,-54.27349
2023-12-04 22:44:00+00:00,28.0,11.04,28.0,12.01,12.09,47.59359,-54.27349
2023-12-04 22:54:00+00:00,23.0,10.08,20.0,11.34,12.09,47.59359,-54.27349
2023-12-04 23:04:00+00:00,33.0,10.78,32.0,11.77,12.09,47.59359,-54.27349
2023-12-04 23:14:00+00:00,23.0,9.83,19.0,10.98,12.09,47.59359,-54.27349
2023-12-04 23:24:00+00:00,32.0,11.12,35.0,12.14,12.09,47.59359,-54.27349
2023-12-04 23:34:00+00:00,24.0,9.14,25.0,10.4,12.09,47.59359,-54.27349
2023-12-04 23:44:00+00:00,26.0,9.32,22.0,11.0,12.09,47.59359,-54.27349
2023-12-04 23:54:00+00:00,25.0,10.27,31.0,11.58,12.09,47.59359,-54.27349
